| time (UTC) | temp C | wind direction | speed KPH | gust KPH | rain 1hr cm | rain 24hr cm | rain mn cm | humidity % | barometer mb |
| 20260507000415 | 18 | 58 | 0.0 | 0.0 | 0.00 | 0.51 | 0.51 | 81 | 1011.3 |
| 20260506235911 | 18 | 36 | 0.0 | 0.0 | 0.00 | 0.51 | 0.51 | 81 | 1011.4 |
| 20260506235409 | 18 | 40 | 0.0 | 0.0 | 0.00 | 0.51 | 0.51 | 80 | 1011.2 |
| 20260506234904 | 18 | 41 | 0.0 | 0.0 | 0.00 | 0.51 | 0.51 | 79 | 1011.1 |
| 20260506234402 | 18 | 38 | 0.0 | 0.0 | 0.00 | 0.51 | 0.51 | 79 | 1011.1 |
| 20260506233859 | 19 | 46 | 0.0 | 0.0 | 0.00 | 0.51 | 0.51 | 79 | 1011.2 |
| 20260506233355 | 19 | 47 | 0.0 | 0.0 | 0.00 | 0.51 | 0.51 | 78 | 1011.1 |
| 20260506232852 | 19 | 40 | 0.0 | 0.0 | 0.00 | 0.51 | 0.51 | 78 | 1011.0 |
| 20260506232348 | 19 | 32 | 0.0 | 0.0 | 0.00 | 0.51 | 0.51 | 78 | 1011.2 |
| 20260506231844 | 19 | 358 | 0.0 | 0.0 | 0.00 | 0.51 | 0.51 | 78 | 1011.1 |
| 20260506231342 | 19 | 23 | 0.0 | 0.0 | 0.00 | 0.51 | 0.51 | 78 | 1011.1 |
| 20260506230839 | 19 | 36 | 0.0 | 0.0 | 0.00 | 0.51 | 0.51 | 77 | 1010.9 |
| 20260506230336 | 19 | 73 | 0.0 | 0.0 | 0.00 | 0.51 | 0.51 | 77 | 1011.1 |
| 20260506225832 | 19 | 343 | 0.0 | 0.0 | 0.00 | 0.51 | 0.51 | 77 | 1011.3 |
| 20260506225330 | 19 | 7 | 0.0 | 0.0 | 0.00 | 0.51 | 0.51 | 77 | 1010.9 |
| 20260506224826 | 19 | 34 | 0.0 | 0.0 | 0.00 | 0.51 | 0.51 | 76 | 1010.8 |
| 20260506224324 | 20 | 57 | 0.0 | 0.0 | 0.00 | 0.51 | 0.51 | 76 | 1011.1 |
| 20260506223820 | 20 | 332 | 0.0 | 0.0 | 0.00 | 0.51 | 0.51 | 75 | 1010.9 |
| 20260506223315 | 20 | 297 | 0.0 | 0.0 | 0.00 | 0.51 | 0.51 | 75 | 1011.0 |
| 20260506222813 | 20 | 300 | 0.0 | 0.0 | 0.00 | 0.51 | 0.51 | 73 | 1011.0 |
| 20260506222308 | 20 | 341 | 0.0 | 0.0 | 0.00 | 0.51 | 0.51 | 74 | 1010.8 |
| 20260506221806 | 20 | 10 | 0.0 | 0.0 | 0.00 | 0.51 | 0.51 | 73 | 1010.7 |
| 20260506221304 | 20 | 45 | 0.0 | 0.0 | 0.00 | 0.51 | 0.51 | 76 | 1010.6 |
| 20260506220801 | 20 | 359 | 0.0 | 0.0 | 0.00 | 0.51 | 0.51 | 76 | 1010.9 |
| 20260506220255 | 20 | 46 | 0.0 | 0.0 | 0.00 | 0.51 | 0.51 | 76 | 1010.8 |
| 20260506215753 | 19 | 88 | 0.0 | 0.0 | 0.00 | 0.51 | 0.51 | 77 | 1011.0 |
| 20260506215248 | 19 | 14 | 0.0 | 0.0 | 0.00 | 0.51 | 0.51 | 77 | 1011.0 |
| 20260506214745 | 19 | 36 | 0.0 | 0.0 | 0.00 | 0.51 | 0.51 | 77 | 1010.8 |
| 20260506214242 | 19 | 244 | 0.0 | 0.0 | 0.00 | 0.51 | 0.51 | 76 | 1010.7 |
| 20260506213741 | 19 | 45 | 0.0 | 0.0 | 0.00 | 0.51 | 0.51 | 77 | 1010.8 |
| 20260506213237 | 19 | 42 | 0.0 | 0.0 | 0.00 | 0.51 | 0.51 | 77 | 1010.9 |
| 20260506212735 | 19 | 2 | 0.0 | 0.0 | 0.00 | 0.51 | 0.51 | 77 | 1010.7 |
| 20260506212230 | 19 | 353 | 0.0 | 0.0 | 0.00 | 0.51 | 0.51 | 78 | 1010.5 |
| 20260506211725 | 19 | 38 | 0.0 | 0.0 | 0.00 | 0.51 | 0.51 | 78 | 1010.6 |
| 20260506211222 | 18 | 51 | 0.0 | 0.0 | 0.00 | 0.51 | 0.51 | 78 | 1010.5 |
| 20260506210719 | 18 | 32 | 0.0 | 0.0 | 0.00 | 0.51 | 0.51 | 79 | 1010.7 |
| 20260506210216 | 18 | 346 | 0.0 | 0.0 | 0.00 | 0.51 | 0.51 | 78 | 1010.5 |
| 20260506205714 | 18 | 13 | 0.0 | 0.0 | 0.00 | 0.51 | 0.51 | 79 | 1010.7 |
| 20260506205214 | 18 | 15 | 0.0 | 0.0 | 0.00 | 0.51 | 0.51 | 79 | 1010.6 |
| 20260506204711 | 18 | 119 | 0.0 | 0.0 | 0.00 | 0.51 | 0.51 | 79 | 1010.6 |
| 20260506204208 | 18 | 277 | 0.0 | 0.0 | 0.00 | 0.51 | 0.51 | 79 | 1010.4 |
| 20260506203706 | 18 | 32 | 0.0 | 0.0 | 0.00 | 0.51 | 0.51 | 79 | 1010.4 |
| 20260506203203 | 18 | 299 | 0.0 | 0.0 | 0.00 | 0.51 | 0.51 | 79 | 1010.4 |
| 20260506202701 | 18 | 21 | 0.0 | 0.0 | 0.00 | 0.51 | 0.51 | 79 | 1010.5 |
| 20260506202156 | 18 | 39 | 0.0 | 0.0 | 0.00 | 0.51 | 0.51 | 79 | 1010.4 |
| 20260506201654 | 18 | 106 | 0.0 | 0.0 | 0.00 | 0.51 | 0.51 | 79 | 1010.2 |
| 20260506201150 | 18 | 137 | 0.0 | 0.0 | 0.00 | 0.51 | 0.51 | 79 | 1010.4 |
| 20260506200647 | 18 | 332 | 0.0 | 0.0 | 0.00 | 0.51 | 0.51 | 80 | 1010.6 |
| 20260506200144 | 17 | 132 | 0.0 | 0.0 | 0.00 | 0.51 | 0.51 | 80 | 1010.3 |
| 20260506195641 | 17 | 261 | 0.0 | 0.0 | 0.00 | 0.51 | 0.51 | 80 | 1010.9 |
| 20260506195137 | 17 | 128 | 0.0 | 0.0 | 0.00 | 0.51 | 0.51 | 81 | 1010.8 |
| 20260506194634 | 18 | 234 | 0.0 | 0.0 | 0.00 | 0.51 | 0.51 | 81 | 1010.7 |
| 20260506194130 | 17 | 197 | 0.0 | 0.0 | 0.00 | 0.51 | 0.51 | 81 | 1010.9 |
| 20260506193629 | 17 | 37 | 0.0 | 0.0 | 0.00 | 0.51 | 0.51 | 82 | 1011.0 |
| 20260506193125 | 17 | 7 | 0.0 | 0.0 | 0.00 | 0.51 | 0.51 | 82 | 1011.0 |
| 20260506192622 | 17 | 58 | 0.0 | 0.0 | 0.00 | 0.51 | 0.51 | 82 | 1010.9 |
| 20260506192118 | 17 | 35 | 0.0 | 0.0 | 0.00 | 0.51 | 0.51 | 82 | 1011.1 |
| 20260506191615 | 17 | 335 | 0.0 | 0.0 | 0.00 | 0.51 | 0.51 | 82 | 1011.0 |
| 20260506191111 | 17 | 1 | 0.0 | 0.0 | 0.00 | 0.51 | 0.51 | 83 | 1011.0 |
| 20260506190609 | 17 | 35 | 0.0 | 0.0 | 0.00 | 0.51 | 0.51 | 84 | 1010.9 |
| 20260506190105 | 17 | 37 | 0.0 | 0.0 | 0.00 | 0.51 | 0.51 | 84 | 1011.1 |
| 20260506185602 | 17 | 49 | 0.0 | 0.0 | 0.00 | 0.51 | 0.51 | 84 | 1011.1 |
| 20260506185059 | 16 | 214 | 0.0 | 0.0 | 0.00 | 0.51 | 0.51 | 85 | 1011.0 |
| 20260506184556 | 16 | 266 | 0.0 | 0.0 | 0.00 | 0.51 | 0.51 | 86 | 1011.2 |
| 20260506184054 | 16 | 272 | 0.0 | 0.0 | 0.00 | 0.51 | 0.51 | 86 | 1011.2 |
| 20260506183549 | 16 | 239 | 0.0 | 0.0 | 0.00 | 0.51 | 0.51 | 86 | 1011.5 |
| 20260506183046 | 16 | 294 | 0.0 | 0.0 | 0.00 | 0.51 | 0.51 | 85 | 1011.3 |
| 20260506182543 | 17 | 341 | 0.0 | 0.0 | 0.00 | 0.51 | 0.51 | 85 | 1011.5 |
| 20260506182041 | 16 | 330 | 0.0 | 0.0 | 0.00 | 0.51 | 0.51 | 84 | 1011.5 |
| 20260506181538 | 16 | 146 | 0.0 | 0.0 | 0.00 | 0.51 | 0.51 | 85 | 1011.5 |
| 20260506181035 | 16 | 350 | 0.0 | 0.0 | 0.00 | 0.51 | 0.51 | 84 | 1011.3 |
| 20260506180531 | 16 | 45 | 0.0 | 0.0 | 0.00 | 0.51 | 0.51 | 84 | 1011.6 |
| 20260506180028 | 16 | 96 | 0.0 | 0.0 | 0.00 | 0.51 | 0.51 | 84 | 1011.6 |
| 20260506175525 | 16 | 253 | 0.0 | 0.0 | 0.00 | 0.51 | 0.51 | 84 | 1011.6 |
| 20260506175021 | 16 | 324 | 0.0 | 0.0 | 0.00 | 0.51 | 0.51 | 84 | 1011.6 |
| 20260506174520 | 16 | 243 | 0.0 | 0.0 | 0.00 | 0.51 | 0.51 | 84 | 1011.7 |
| 20260506174015 | 16 | 42 | 0.0 | 0.0 | 0.00 | 0.51 | 0.51 | 85 | 1011.6 |
| 20260506173513 | 16 | 82 | 0.0 | 0.0 | 0.00 | 0.51 | 0.51 | 85 | 1011.6 |
| 20260506173010 | 16 | 144 | 0.0 | 0.0 | 0.00 | 0.51 | 0.51 | 86 | 1011.4 |
| 20260506172508 | 16 | 67 | 0.0 | 0.0 | 0.00 | 0.51 | 0.51 | 86 | 1011.6 |
| 20260506172003 | 16 | 172 | 0.0 | 0.0 | 0.00 | 0.51 | 0.51 | 86 | 1011.7 |
| 20260506171501 | 16 | 301 | 0.0 | 0.0 | 0.00 | 0.51 | 0.51 | 86 | 1012.0 |
| 20260506170959 | 16 | 33 | 0.0 | 0.0 | 0.00 | 0.51 | 0.51 | 86 | 1011.9 |
| 20260506170455 | 16 | 243 | 0.0 | 0.0 | 0.00 | 0.51 | 0.51 | 86 | 1011.8 |
| 20260506165954 | 16 | 41 | 0.0 | 0.0 | 0.00 | 0.51 | 0.51 | 87 | 1011.9 |
| 20260506165452 | 16 | 339 | 0.0 | 0.0 | 0.00 | 0.51 | 0.51 | 87 | 1011.8 |
| 20260506164947 | 16 | 318 | 0.0 | 0.0 | 0.00 | 0.51 | 0.51 | 87 | 1012.0 |
| 20260506164444 | 16 | 116 | 0.0 | 0.0 | 0.00 | 0.51 | 0.51 | 88 | 1011.8 |
| 20260506163942 | 16 | 199 | 0.0 | 0.0 | 0.00 | 0.51 | 0.51 | 88 | 1011.9 |
| 20260506163437 | 16 | 42 | 0.0 | 0.0 | 0.13 | 0.51 | 0.51 | 88 | 1011.6 |
| 20260506162932 | 16 | 53 | 0.0 | 0.0 | 0.13 | 0.51 | 0.51 | 88 | 1011.9 |
| 20260506162430 | 16 | 79 | 0.0 | 0.0 | 0.00 | 0.48 | 0.48 | 89 | 1011.6 |
| 20260506161927 | 16 | 49 | 0.0 | 0.0 | 0.00 | 0.48 | 0.48 | 89 | 1011.8 |
| 20260506161426 | 16 | 102 | 0.0 | 0.0 | 0.18 | 0.48 | 0.48 | 89 | 1012.1 |
| 20260506160922 | 16 | 42 | 0.0 | 0.0 | 0.18 | 0.48 | 0.48 | 89 | 1012.5 |
| 20260506160420 | 16 | 50 | 0.0 | 0.0 | 0.13 | 0.46 | 0.46 | 89 | 1012.6 |
| 20260506155917 | 16 | 139 | 0.0 | 0.0 | 0.13 | 0.46 | 0.46 | 89 | 1012.9 |
| 20260506155414 | 16 | 50 | 0.0 | 0.0 | 0.30 | 0.46 | 0.46 | 89 | 1013.0 |
| 20260506153531 | 16 | 56 | 0.0 | 0.0 | 0.48 | 0.28 | 0.28 | 87 | 1013.0 |
| 20260506153028 | 16 | 11 | 0.0 | 0.0 | 0.48 | 0.25 | 0.25 | 86 | 1013.0 |
| 20260506152525 | 16 | 345 | 0.0 | 0.0 | 0.30 | 0.20 | 0.20 | 85 | 1012.8 |
| 20260506152023 | 16 | 59 | 0.0 | 0.0 | 0.30 | 0.18 | 0.18 | 85 | 1012.7 |
| 20260506151521 | 16 | 35 | 0.0 | 0.0 | 0.30 | 0.15 | 0.15 | 85 | 1013.1 |
| 20260506151018 | 16 | 300 | 0.0 | 0.0 | 0.13 | 0.13 | 0.13 | 84 | 1013.1 |
| 20260506150514 | 16 | 23 | 0.0 | 0.0 | 0.13 | 0.13 | 0.13 | 84 | 1013.0 |
| 20260506150011 | 16 | 33 | 0.0 | 0.0 | 0.00 | 0.10 | 0.10 | 84 | 1012.9 |
| 20260506145507 | 17 | 33 | 0.0 | 0.0 | 0.18 | 0.10 | 0.10 | 85 | 1012.9 |
| 20260506145005 | 17 | 33 | 0.0 | 0.0 | 0.30 | 0.10 | 0.10 | 84 | 1012.9 |
| 20260506144502 | 16 | 42 | 0.0 | 0.0 | 0.13 | 0.08 | 0.08 | 83 | 1012.9 |
| 20260506143959 | 17 | 171 | 0.0 | 0.0 | 0.30 | 0.08 | 0.08 | 82 | 1012.9 |
| 20260506143456 | 17 | 38 | 0.0 | 0.0 | 0.30 | 0.05 | 0.05 | 82 | 1012.9 |
| 20260506142955 | 17 | 47 | 0.0 | 0.0 | 0.13 | 0.03 | 0.03 | 81 | 1012.9 |
| 20260506142452 | 17 | 47 | 0.0 | 0.0 | 0.00 | 0.00 | 0.00 | 77 | 1012.9 |
| 20260506141950 | 17 | 69 | 0.0 | 0.0 | 0.00 | 0.00 | 0.00 | 75 | 1012.9 |
| 20260506141448 | 18 | 269 | 0.0 | 0.0 | 0.00 | 0.00 | 0.00 | 74 | 1013.0 |
| 20260506140946 | 18 | 281 | 0.0 | 0.0 | 0.00 | 0.00 | 0.00 | 74 | 1012.8 |
| 20260506140443 | 18 | 197 | 0.0 | 0.0 | 0.00 | 0.00 | 0.00 | 71 | 1013.0 |
| 20260506135939 | 18 | 207 | 0.0 | 0.0 | 0.00 | 0.00 | 0.00 | 69 | 1012.5 |
| 20260506135437 | 19 | 22 | 0.0 | 0.0 | 0.00 | 0.00 | 0.00 | 70 | 1012.6 |
| 20260506134933 | 19 | 315 | 0.0 | 0.0 | 0.00 | 0.00 | 0.00 | 69 | 1012.6 |
| 20260506134429 | 20 | 351 | 0.0 | 0.0 | 0.00 | 0.00 | 0.00 | 68 | 1012.6 |
| 20260506133926 | 19 | 77 | 0.0 | 0.0 | 0.00 | 0.00 | 0.00 | 69 | 1012.6 |
| 20260506133423 | 19 | 32 | 0.0 | 0.0 | 0.00 | 0.00 | 0.00 | 69 | 1012.6 |
| 20260506132920 | 18 | 40 | 0.0 | 0.0 | 0.00 | 0.00 | 0.00 | 70 | 1012.9 |
| 20260506132417 | 18 | 23 | 0.0 | 0.0 | 0.00 | 0.00 | 0.00 | 70 | 1012.8 |
| 20260506131914 | 18 | 177 | 0.0 | 0.0 | 0.00 | 0.00 | 0.00 | 69 | 1012.8 |
| 20260506131411 | 18 | 167 | 0.0 | 0.0 | 0.00 | 0.00 | 0.00 | 70 | 1012.8 |
| 20260506130908 | 18 | 113 | 0.0 | 0.0 | 0.00 | 0.00 | 0.00 | 70 | 1012.8 |
| 20260506130404 | 18 | 70 | 0.0 | 0.0 | 0.00 | 0.00 | 0.00 | 69 | 1012.8 |
| 20260506125902 | 18 | 147 | 0.0 | 0.0 | 0.00 | 0.00 | 0.00 | 68 | 1013.1 |
| 20260506125401 | 18 | 345 | 0.0 | 0.0 | 0.00 | 0.00 | 0.00 | 69 | 1013.1 |
| 20260506124858 | 19 | 156 | 0.0 | 0.0 | 0.00 | 0.00 | 0.00 | 68 | 1013.0 |
| 20260506124355 | 19 | 193 | 0.0 | 0.0 | 0.00 | 0.00 | 0.00 | 68 | 1012.9 |
| 20260506123853 | 19 | 168 | 0.0 | 0.0 | 0.00 | 0.00 | 0.00 | 68 | 1013.1 |
| 20260506123351 | 18 | 23 | 0.0 | 0.0 | 0.00 | 0.00 | 0.00 | 68 | 1012.9 |
| 20260506122848 | 18 | 120 | 0.0 | 0.0 | 0.00 | 0.00 | 0.00 | 69 | 1012.9 |
| 20260506122345 | 18 | 55 | 0.0 | 0.0 | 0.00 | 0.00 | 0.00 | 69 | 1012.9 |
| 20260506121843 | 18 | 44 | 0.0 | 0.0 | 0.00 | 0.00 | 0.00 | 69 | 1012.9 |
| 20260506121340 | 18 | 271 | 0.0 | 0.0 | 0.00 | 0.00 | 0.00 | 69 | 1012.8 |
| 20260506120837 | 18 | 231 | 0.0 | 0.0 | 0.00 | 0.00 | 0.00 | 69 | 1012.8 |
| 20260506120334 | 18 | 347 | 0.0 | 0.0 | 0.00 | 0.00 | 0.00 | 70 | 1012.9 |
| 20260506115832 | 18 | 39 | 0.0 | 0.0 | 0.00 | 0.00 | 0.00 | 71 | 1012.7 |
| 20260506115330 | 18 | 49 | 0.0 | 0.0 | 0.00 | 0.00 | 0.00 | 70 | 1012.8 |
| 20260506114827 | 18 | 43 | 0.0 | 0.0 | 0.00 | 0.00 | 0.00 | 71 | 1012.7 |
| 20260506114325 | 18 | 41 | 0.0 | 0.0 | 0.00 | 0.00 | 0.00 | 71 | 1012.7 |
| 20260506113823 | 18 | 79 | 0.0 | 0.0 | 0.00 | 0.00 | 0.00 | 71 | 1012.6 |
| 20260506113321 | 18 | 58 | 0.0 | 0.0 | 0.00 | 0.00 | 0.00 | 71 | 1012.7 |
| 20260506112817 | 18 | 67 | 0.0 | 0.0 | 0.00 | 0.00 | 0.00 | 71 | 1012.5 |
| 20260506112314 | 18 | 98 | 0.0 | 0.0 | 0.00 | 0.00 | 0.00 | 71 | 1012.7 |
| 20260506111812 | 18 | 43 | 0.0 | 0.0 | 0.00 | 0.00 | 0.00 | 72 | 1012.9 |
| 20260506111309 | 18 | 36 | 0.0 | 0.0 | 0.00 | 0.00 | 0.00 | 71 | 1012.6 |
| 20260506110807 | 18 | 215 | 0.0 | 0.0 | 0.00 | 0.00 | 0.00 | 71 | 1012.7 |
| 20260506110304 | 18 | 45 | 0.0 | 0.0 | 0.00 | 0.00 | 0.00 | 72 | 1012.5 |
| 20260506105800 | 18 | 55 | 0.0 | 0.0 | 0.00 | 0.00 | 0.00 | 71 | 1012.5 |
| 20260506105257 | 18 | 79 | 0.0 | 0.0 | 0.00 | 0.00 | 0.00 | 72 | 1012.5 |
| 20260506104755 | 18 | 112 | 0.0 | 0.0 | 0.00 | 0.00 | 0.00 | 71 | 1012.4 |
| 20260506104252 | 18 | 110 | 0.0 | 0.0 | 0.00 | 0.00 | 0.00 | 72 | 1012.2 |
| 20260506103750 | 18 | 152 | 0.0 | 0.0 | 0.00 | 0.00 | 0.00 | 71 | 1012.5 |
| 20260506103247 | 18 | 89 | 0.0 | 0.0 | 0.00 | 0.00 | 0.00 | 71 | 1012.3 |
| 20260506102744 | 18 | 50 | 0.0 | 0.0 | 0.00 | 0.00 | 0.00 | 71 | 1012.6 |
| 20260506102242 | 18 | 85 | 0.0 | 0.0 | 0.00 | 0.00 | 0.00 | 71 | 1012.3 |
| 20260506101739 | 18 | 61 | 0.0 | 0.0 | 0.00 | 0.00 | 0.00 | 71 | 1012.1 |
| 20260506101235 | 18 | 144 | 0.0 | 0.0 | 0.00 | 0.00 | 0.00 | 71 | 1012.4 |
| 20260506100734 | 18 | 60 | 0.0 | 0.0 | 0.00 | 0.00 | 0.00 | 72 | 1012.1 |
| 20260506100231 | 18 | 51 | 0.0 | 0.0 | 0.00 | 0.00 | 0.00 | 71 | 1012.4 |
| 20260506095730 | 18 | 58 | 0.0 | 0.0 | 0.00 | 0.00 | 0.00 | 71 | 1012.5 |
| 20260506095226 | 18 | 88 | 0.0 | 0.0 | 0.00 | 0.00 | 0.00 | 71 | 1012.6 |
| 20260506094723 | 18 | 47 | 0.0 | 0.0 | 0.00 | 0.00 | 0.00 | 71 | 1012.5 |
| 20260506094221 | 18 | 34 | 0.0 | 0.0 | 0.00 | 0.00 | 0.00 | 71 | 1012.4 |
| 20260506093720 | 18 | 102 | 0.0 | 0.0 | 0.00 | 0.00 | 0.00 | 71 | 1012.4 |
| 20260506093216 | 18 | 42 | 0.0 | 0.0 | 0.00 | 0.00 | 0.00 | 70 | 1012.2 |
| 20260506092714 | 18 | 46 | 0.0 | 0.0 | 0.00 | 0.00 | 0.00 | 70 | 1012.5 |
| 20260506092211 | 18 | 57 | 0.0 | 0.0 | 0.00 | 0.00 | 0.00 | 70 | 1012.4 |
| 20260506091709 | 18 | 71 | 0.0 | 0.0 | 0.00 | 0.00 | 0.00 | 69 | 1012.4 |
| 20260506091206 | 18 | 96 | 0.0 | 0.0 | 0.00 | 0.00 | 0.00 | 69 | 1012.3 |
| 20260506090704 | 18 | 42 | 0.0 | 0.0 | 0.00 | 0.00 | 0.00 | 68 | 1012.3 |
| 20260506090200 | 19 | 52 | 0.0 | 0.0 | 0.00 | 0.00 | 0.00 | 68 | 1012.3 |
| 20260506085658 | 19 | 56 | 0.0 | 0.0 | 0.00 | 0.00 | 0.00 | 67 | 1012.3 |
| 20260506085153 | 19 | 50 | 0.0 | 0.0 | 0.00 | 0.00 | 0.00 | 67 | 1012.2 |
| 20260506084650 | 19 | 29 | 0.0 | 0.0 | 0.00 | 0.00 | 0.00 | 67 | 1012.4 |
| 20260506084147 | 19 | 51 | 0.0 | 0.0 | 0.00 | 0.00 | 0.00 | 67 | 1012.4 |
| 20260506083644 | 19 | 34 | 0.0 | 0.0 | 0.00 | 0.00 | 0.00 | 67 | 1012.3 |
| 20260506083142 | 19 | 79 | 0.0 | 0.0 | 0.00 | 0.00 | 0.00 | 67 | 1012.8 |
| 20260506082639 | 19 | 51 | 0.0 | 0.0 | 0.00 | 0.00 | 0.00 | 66 | 1012.4 |
| 20260506082134 | 19 | 269 | 0.0 | 0.0 | 0.00 | 0.00 | 0.00 | 67 | 1012.5 |
| 20260506081632 | 19 | 248 | 0.0 | 0.0 | 0.00 | 0.00 | 0.00 | 67 | 1012.3 |
| 20260506081130 | 19 | 43 | 0.0 | 0.0 | 0.00 | 0.00 | 0.00 | 67 | 1012.4 |
| 20260506080627 | 19 | 105 | 0.0 | 0.0 | 0.00 | 0.00 | 0.00 | 67 | 1012.6 |
| 20260506080123 | 19 | 50 | 0.0 | 0.0 | 0.00 | 0.00 | 0.00 | 67 | 1012.5 |
| 20260506073107 | 19 | 32 | 0.0 | 0.0 | 0.00 | 0.00 | 0.00 | 66 | 1012.8 |
| 20260506072604 | 19 | 46 | 0.0 | 0.0 | 0.00 | 0.00 | 0.00 | 66 | 1012.8 |
| 20260506072102 | 19 | 48 | 0.0 | 0.0 | 0.00 | 0.00 | 0.00 | 66 | 1012.8 |
| 20260506071559 | 19 | 153 | 0.0 | 0.0 | 0.00 | 0.00 | 0.00 | 66 | 1012.7 |
| 20260506071057 | 19 | 82 | 0.0 | 0.0 | 0.00 | 0.00 | 0.00 | 66 | 1012.8 |
| 20260506070554 | 19 | 44 | 0.0 | 0.0 | 0.00 | 0.00 | 0.00 | 65 | 1012.9 |
| 20260506062028 | 20 | 62 | 0.0 | 0.0 | 0.00 | 0.00 | 0.00 | 63 | 1013.4 |
| 20260506061529 | 20 | 95 | 0.0 | 0.0 | 0.00 | 0.00 | 0.00 | 63 | 1013.4 |
| 20260506061027 | 20 | 65 | 0.0 | 0.0 | 0.00 | 0.00 | 0.00 | 63 | 1013.3 |
| 20260506060525 | 20 | 90 | 0.0 | 0.0 | 0.00 | 0.00 | 0.00 | 63 | 1013.4 |
| 20260506050954 | 20 | 33 | 0.0 | 0.0 | 0.00 | 0.00 | 0.00 | 62 | 1013.9 |
| 20260506050452 | 20 | 11 | 0.0 | 0.0 | 0.00 | 0.00 | 0.00 | 61 | 1013.6 |
| 20260506044942 | 20 | 72 | 0.0 | 0.0 | 0.00 | 0.00 | 0.00 | 61 | 1013.7 |
| 20260506044440 | 20 | 52 | 0.0 | 0.0 | 0.00 | 0.00 | 0.00 | 61 | 1013.9 |
| 20260506043936 | 20 | 44 | 0.0 | 0.0 | 0.00 | 0.00 | 0.00 | 61 | 1013.9 |
| 20260506043434 | 20 | 96 | 0.0 | 0.0 | 0.00 | 0.00 | 0.00 | 61 | 1014.0 |
| 20260506042932 | 20 | 67 | 0.0 | 0.0 | 0.00 | 0.00 | 0.00 | 61 | 1013.9 |
| 20260506042431 | 20 | 42 | 0.0 | 0.0 | 0.00 | 0.00 | 0.00 | 61 | 1014.0 |
| 20260506041929 | 20 | 39 | 0.0 | 0.0 | 0.00 | 0.00 | 0.00 | 61 | 1013.9 |
| 20260506041426 | 20 | 131 | 0.0 | 0.0 | 0.00 | 0.00 | 0.00 | 61 | 1013.7 |
| 20260506040923 | 20 | 34 | 0.0 | 0.0 | 0.00 | 0.00 | 0.00 | 61 | 1013.7 |
| 20260506040421 | 20 | 236 | 0.0 | 0.0 | 0.00 | 0.00 | 0.00 | 60 | 1013.6 |
| 20260506035916 | 20 | 39 | 0.0 | 0.0 | 0.00 | 0.00 | 0.00 | 60 | 1013.6 |
| 20260506035414 | 20 | 39 | 0.0 | 0.0 | 0.00 | 0.00 | 0.00 | 60 | 1013.9 |
| 20260506034911 | 20 | 12 | 0.0 | 0.0 | 0.00 | 0.00 | 0.00 | 60 | 1013.4 |
| 20260506034408 | 20 | 178 | 0.0 | 0.0 | 0.00 | 0.00 | 0.00 | 60 | 1013.7 |
| 20260506033905 | 20 | 65 | 0.0 | 0.0 | 0.00 | 0.00 | 0.00 | 60 | 1013.5 |
| 20260506033402 | 20 | 43 | 0.0 | 0.0 | 0.00 | 0.00 | 0.00 | 60 | 1013.5 |
| 20260506032859 | 20 | 88 | 0.0 | 0.0 | 0.00 | 0.00 | 0.00 | 60 | 1013.5 |
| 20260506032356 | 20 | 64 | 0.0 | 0.0 | 0.00 | 0.00 | 0.00 | 59 | 1013.4 |
| 20260506031852 | 20 | 49 | 0.0 | 0.0 | 0.00 | 0.00 | 0.00 | 59 | 1013.5 |
| 20260506031350 | 20 | 41 | 0.0 | 0.0 | 0.00 | 0.00 | 0.00 | 59 | 1013.6 |
| 20260506030848 | 21 | 50 | 0.0 | 0.0 | 0.00 | 0.00 | 0.00 | 58 | 1013.6 |
| 20260506030346 | 21 | 44 | 0.0 | 0.0 | 0.00 | 0.00 | 0.00 | 56 | 1013.5 |
| 20260506025842 | 21 | 44 | 0.0 | 0.0 | 0.00 | 0.00 | 0.00 | 55 | 1013.4 |
| 20260506025338 | 21 | 107 | 0.0 | 0.0 | 0.00 | 0.00 | 0.00 | 55 | 1013.5 |
| 20260506024835 | 21 | 55 | 0.0 | 0.0 | 0.00 | 0.00 | 0.00 | 54 | 1013.5 |
| 20260506024332 | 21 | 111 | 0.0 | 0.0 | 0.00 | 0.00 | 0.00 | 54 | 1013.7 |
| 20260506023828 | 21 | 50 | 0.0 | 0.0 | 0.00 | 0.00 | 0.00 | 53 | 1013.6 |
| 20260506023325 | 21 | 75 | 0.0 | 0.0 | 0.00 | 0.00 | 0.00 | 53 | 1013.4 |
| 20260506022822 | 21 | 84 | 0.0 | 0.0 | 0.00 | 0.00 | 0.00 | 53 | 1013.5 |
| 20260506022320 | 22 | 170 | 0.0 | 0.0 | 0.00 | 0.00 | 0.00 | 52 | 1013.6 |
| 20260506021818 | 22 | 60 | 0.0 | 0.0 | 0.00 | 0.00 | 0.00 | 52 | 1013.5 |
| 20260506021314 | 22 | 157 | 0.0 | 0.0 | 0.00 | 0.00 | 0.00 | 52 | 1013.4 |
| 20260506020811 | 22 | 43 | 0.0 | 0.0 | 0.00 | 0.00 | 0.00 | 52 | 1013.5 |
| 20260506020309 | 22 | 88 | 0.0 | 0.0 | 0.00 | 0.00 | 0.00 | 51 | 1013.5 |
| 20260506015807 | 22 | 68 | 0.0 | 0.0 | 0.00 | 0.00 | 0.00 | 51 | 1013.4 |
| 20260506015306 | 22 | 56 | 0.0 | 0.0 | 0.00 | 0.00 | 0.00 | 50 | 1013.4 |
| 20260506014800 | 22 | 89 | 0.0 | 0.0 | 0.00 | 0.00 | 0.00 | 50 | 1013.4 |
| 20260506014257 | 22 | 95 | 0.0 | 0.0 | 0.00 | 0.00 | 0.00 | 49 | 1013.3 |
| 20260506013754 | 22 | 70 | 0.0 | 0.0 | 0.00 | 0.00 | 0.00 | 48 | 1013.3 |
| 20260506013251 | 22 | 208 | 0.0 | 0.0 | 0.00 | 0.00 | 0.00 | 48 | 1013.3 |
| 20260506012748 | 23 | 24 | 0.0 | 0.0 | 0.00 | 0.00 | 0.00 | 48 | 1013.3 |
| 20260506012244 | 23 | 15 | 0.0 | 0.0 | 0.00 | 0.00 | 0.00 | 47 | 1013.3 |
| 20260506011742 | 23 | 75 | 0.0 | 0.0 | 0.00 | 0.00 | 0.00 | 47 | 1013.1 |
| 20260506011238 | 23 | 74 | 0.0 | 0.0 | 0.00 | 0.00 | 0.00 | 46 | 1013.2 |
| 20260506010737 | 23 | 49 | 0.0 | 0.0 | 0.00 | 0.00 | 0.00 | 46 | 1013.1 |
| 20260506010233 | 23 | 256 | 0.0 | 0.0 | 0.00 | 0.00 | 0.00 | 46 | 1013.1 |
| 20260506005731 | 23 | 79 | 0.0 | 0.0 | 0.00 | 0.00 | 0.00 | 47 | 1013.0 |
| 20260506005227 | 23 | 60 | 0.0 | 0.0 | 0.00 | 0.00 | 0.00 | 47 | 1012.8 |
| 20260506004723 | 23 | 35 | 0.0 | 0.0 | 0.00 | 0.00 | 0.00 | 46 | 1012.8 |
| 20260506004221 | 23 | 306 | 0.0 | 0.0 | 0.00 | 0.00 | 0.00 | 46 | 1012.9 |
| 20260506003717 | 23 | 116 | 0.0 | 0.0 | 0.00 | 0.00 | 0.00 | 45 | 1013.0 |
| 20260506003213 | 23 | 85 | 0.0 | 0.0 | 0.00 | 0.00 | 0.00 | 47 | 1012.5 |
| 20260506002709 | 23 | 118 | 0.0 | 0.0 | 0.00 | 0.00 | 0.00 | 45 | 1012.9 |
| 20260506002206 | 24 | 109 | 0.0 | 0.0 | 0.00 | 0.00 | 0.00 | 45 | 1012.6 |
| 20260506001702 | 23 | 45 | 0.0 | 0.0 | 0.00 | 0.00 | 0.00 | 44 | 1012.6 |
| 20260506001159 | 24 | 44 | 0.0 | 0.0 | 0.00 | 0.00 | 0.00 | 43 | 1012.4 |